User: anonymous   Login
Location: Unspecified
(0.0000°N, 0.0000°E)
Time: 14:14:55
(UTC+00:00)
Language:

SCD-1 - Orbit

View from above orbital plane
View from above orbital plane
View from above satellite
View from above satellite

Ground track
Ground track

The orbit data is extracted from the following two-line orbital elements,

1 22490U 93009B   18267.59773502 +.00000243 +00000-0 +16554-4 0  9994
2 22490 024.9708 323.7843 0042874 197.2077 296.6655 14.44531705352820
Epoch (UTC): 24 September 2018 14:20:44
Eccentricity: 0.0042874
inclination: 24.9708°
perigee height: 713 km
apogee height: 774 km
right ascension of ascending node: 323.7843°
argument of perigee: 197.2077°
revolutions per day: 14.44531705
mean anomaly at epoch: 296.6655°
orbit number at epoch: 35282

The dashed part of the orbit path shows where the satellite is in the earth's shadow,  

DLR